Погода в Кирилловке

Россия / Самарская область     53°51′25″N   49°47′57″E
темп.,
°C
ветер,
м/с
пор.,
м/с
влажн.,
%
обл.,
%
осадки,
мм/ч
давл.,
гПа
погр.,
м
27 сентября, пн
пн2701:00+10всв4107393 0.0 1004261
04:00+10св5977100 0.0 1005270
07:00+8ссв4990100 0.1 1005260
10:00+10ссв5786100 0.2 1005454
13:00+11св5767100 0.4 1007746
16:00+11св7965100 0.4 1009825
19:00+9св71160100 0.0 1012726
22:00+6всв71181100 0.0 1015569
28 сентября, вт
вт2801:00+4св61092100 0.4 1017815
04:00+4св61079100 0.5 10181095
07:00+4св71180100 0.1 1020903
10:00+5св7106787 0.1 10211103
13:00+6св81059100 0.0 10231315
16:00+8св795081 0.0 10241508
19:00+6ссв6115793 0.0 1025435
22:00+3ссв6116764 0.0 1027357
29 сентября, ср
ср2901:00+3ссв51073100 0.0 1027272
04:00+2ссв4974100 0.0 1027265
07:00+2ссв497696 0.0 1029270
10:00+6св57566 0.0 1029717
13:00+8св564564 0.0 10291571
16:00+9ссв564273 0.0 10291705
19:00+5ссв37575 0.0 1030131
22:00+4ссв35635 0.0 103196
30 сентября, чт
чт3001:00+3ссв33685 0.0 103251
04:00+2с33745 0.0 103243
07:00+1с22795 0.0 103330
10:00+7ссв23564 0.0 1033410
13:00+9с33465 0.0 10321449
16:00+10ссз444693 0.0 10321575
19:00+8ссз3560100 0.0 1032221
22:00+7ссз3667100 0.1 1033239
1 октября, пт
пт101:00+6сз357620 0.1 1032132
04:00+4сз238767 0.1 103341
07:00+6з3582100 0.0 1032152
10:00+9з45675 0.0 1032553
13:00+11зсз5562100 0.0 1032793
16:00+11зсз46696 0.0 1031700
19:00+11зюз3576100 0.0 1031136
22:00+10сз347511 0.0 103295